Flag for Brazil Weather past 2 weeks in Porto Velho, Rondônia, Brazil

Now
75 °F

Passing clouds.


Feels Like: 74 °F
Forecast: 73 / 87 °F
Wind: 2 mph from Southwest

Location: Porto Velho Aeroporto

Current Time: Apr 27, 2015 at 10:10:17 PM

Latest Report: Apr 27, 2015 at 9:00 PM


Visibility: N/A

Pressure: 29.86 "Hg

Humidity: 94%

Dew point: 73 °F

Location of Porto VelhoLocation

Historic Weather in Porto Velho — Graph

°F

Porto Velho temperature yesterday

Maximum temperature yesterday: 84 °F (at 10:00 AM)
Minimum temperature yesterday: 75 °F (at 3:00 AM)
Average temperature yesterday: 79 °F

Past Weeks' High & Low Weather Summary

 TemperatureHumidityPressure
High90 °F (Apr 15, 1:00 PM)100% (Apr 17, 3:00 AM)30.01 "Hg (Apr 17, 3:00 AM)
Low72 °F (Apr 17, 3:00 AM)22% (Apr 13, 12:00 AM)29.50 "Hg (Apr 14, 6:00 PM)
Average78 °F85%29.86 "Hg
* Reported Apr 12 8:00 PM — Apr 27 8:00 PM, Porto Velho, Weather by CustomWeather, © 2015

Note: Actual official high and low records may vary slightly from our data, if they occured in-between our weather recording intervals... More about our weather records

Advertising

Porto Velho weather history for previous 24 hours

 ConditionsComfort  
Time TempWeatherWind HumidityBarometerVisibility
8:00 PM
Mon, Apr 27
77 °FPassing clouds.No wind94%29.83 "HgN/A
7:00 PM77 °FPassing clouds.2 mph94%29.77 "HgN/A
6:00 PM79 °FBroken clouds.2 mph89%29.77 "HgN/A
5:00 PM81 °FBroken clouds.3 mph79%29.77 "HgN/A
4:00 PM82 °FScattered clouds.2 mph74%29.77 "HgN/A
3:00 PM82 °FBroken clouds.5 mph74%29.80 "HgN/A
2:00 PM81 °FScattered clouds.5 mph74%29.83 "HgN/A
1:00 PM79 °FBroken clouds.No wind79%29.86 "HgN/A
12:00 PM75 °FScattered showers. Broken clouds.3 mph94%29.89 "Hg5 mi
11:00 AM73 °FThunderstorms. Broken clouds.5 mph94%29.92 "Hg3 mi
10:00 AM82 °FLight rain. Scattered clouds.6 mph74%29.92 "Hg4 mi
9:00 AM81 °FScattered clouds.2 mph79%29.92 "HgN/A
8:00 AM81 °FScattered clouds.No wind84%29.89 "HgN/A
7:00 AM77 °FScattered clouds.No wind94%29.86 "HgN/A
6:00 AM75 °FPassing clouds.No wind100%29.86 "Hg5 mi
5:00 AM75 °FFog.No wind94%29.83 "Hg1 mi
4:00 AM75 °FFog.No wind94%29.83 "Hg1 mi
3:48 AM75 °FFog.No wind94%29.83 "Hg1 mi
3:00 AM77 °FPartly cloudy.No wind94%29.83 "HgN/A
2:00 AM77 °FPartly cloudy.No wind94%29.83 "HgN/A
1:00 AM77 °FPassing clouds.1 mph94%29.86 "HgN/A
12:00 AM77 °FPassing clouds.No wind94%29.86 "HgN/A
11:00 PM
Sun, Apr 26
77 °FPassing clouds.1 mph94%29.89 "HgN/A
10:00 PM77 °FPassing clouds.No wind94%29.89 "HgN/A
Weather by CustomWeather, © 2015

See weather overviewHow to use our weather pages